FW2847 Weather Reports


Display with metric or nautical units.
time (UTC)temp
F
wind
direction
speed
MPH
gust
MPH
rain 1hr
in
rain 24hr
in
rain mn
in
humidity
%
barometer
mb
20260903213206 87 47 5.0 11.0 0.00 0.01 0.00 22 1020.6
20260903212709 87 68 6.0 11.0 0.00 0.01 0.00 22 1020.6
20260903212206 87 93 5.0 11.0 0.00 0.01 0.00 23 1020.6
20260903211705 87 122 4.0 11.0 0.00 0.01 0.00 23 1020.6
20260903211206 87 75 5.0 10.0 0.00 0.01 0.00 23 1020.6
20260903210709 86 53 7.0 12.0 0.00 0.01 0.00 23 1020.6
20260903210206 87 69 7.0 13.0 0.00 0.01 0.00 23 1020.6
20260903205711 86 84 6.0 12.0 0.00 0.01 0.00 22 1020.6
20260903205706 86 83 6.0 13.0 0.00 0.01 0.00 23 1020.6
20260903204941 86 87 4.0 9.0 0.00 0.01 0.00 22 1020.6
20260903204439 86 57 3.0 10.0 0.00 0.01 0.00 24 1020.6
20260903203708 85 102 3.0 10.0 0.00 0.01 0.00 24 1020.6
20260903203205 86 77 3.0 10.0 0.00 0.01 0.00 23 1020.6
20260903202704 87 20 4.0 10.0 0.00 0.01 0.00 23 1020.6
20260903202204 87 56 5.0 11.0 0.00 0.01 0.00 23 1020.6
20260903201711 85 77 7.0 15.0 0.00 0.01 0.00 23 1020.6
20260903201706 85 323 6.0 14.0 0.00 0.01 0.00 24 1020.6
20260903200701 86 132 6.0 15.0 0.00 0.01 0.00 23 1020.6
20260903200201 86 67 5.0 13.0 0.00 0.01 0.00 23 1020.6
20260903195658 85 71 6.0 13.0 0.00 0.01 0.00 24 1020.6
20260903195431 85 118 6.0 11.0 0.00 0.01 0.00 24 1020.6
20260903194701 85 77 7.0 13.0 0.00 0.01 0.00 24 1020.6
20260903194157 85 45 8.0 14.0 0.00 0.01 0.00 24 1020.6
20260903193659 86 106 7.0 15.0 0.00 0.01 0.00 24 1020.6
20260903193159 85 79 6.0 15.0 0.00 0.01 0.00 25 1020.6
20260903192931 85 53 6.0 13.0 0.00 0.01 0.00 24 1020.6
20260903192157 85 32 6.0 12.0 0.00 0.01 0.00 24 1020.6
20260903191657 85 72 5.0 11.0 0.00 0.01 0.00 24 1020.6
20260903191159 85 85 4.0 12.0 0.00 0.01 0.00 24 1020.6
20260903190657 84 96 3.0 12.0 0.00 0.01 0.00 25 1020.6
20260903190429 84 58 2.0 10.0 0.00 0.01 0.00 25 1020.6
20260903185700 85 60 2.0 5.0 0.00 0.01 0.00 24 1020.6
20260903185157 85 101 3.0 7.0 0.00 0.01 0.00 26 1020.6
20260903184657 84 84 3.0 9.0 0.00 0.01 0.00 26 1020.6
20260903184157 84 101 4.0 9.0 0.00 0.01 0.00 26 1020.6
20260903183700 83 101 5.0 11.0 0.00 0.01 0.00 26 1020.6
20260903183159 82 84 5.0 12.0 0.00 0.01 0.00 26 1020.6
20260903182658 82 124 4.0 12.0 0.00 0.01 0.00 25 1020.6
20260903182159 82 94 3.0 12.0 0.00 0.01 0.00 27 1020.6
20260903181659 82 85 4.0 12.0 0.00 0.01 0.00 27 1020.6
20260903181157 83 88 6.0 15.0 0.00 0.01 0.00 26 1020.6
20260903180928 83 98 5.0 15.0 0.00 0.01 0.00 26 1020.6
20260903180204 82 106 3.0 10.0 0.00 0.01 0.00 28 1020.6
20260903180159 83 103 2.0 9.0 0.00 0.01 0.00 28 1020.6
20260903175157 82 112 5.0 11.0 0.00 0.01 0.00 28 1020.6
20260903174700 82 65 5.0 11.0 0.00 0.01 0.00 27 1020.6
20260903174157 82 108 5.0 10.0 0.00 0.01 0.00 27 1020.6
20260903173700 82 123 5.0 10.0 0.00 0.01 0.00 27 1020.6
20260903173158 82 86 6.0 14.0 0.00 0.01 0.00 28 1020.6
20260903172700 81 92 7.0 14.0 0.00 0.01 0.00 27 1020.6
20260903172158 81 108 6.0 13.0 0.00 0.01 0.00 27 1020.6
20260903171659 81 128 5.0 13.0 0.00 0.01 0.00 28 1020.6
20260903171157 81 87 6.0 11.0 0.00 0.01 0.00 30 1020.6
20260903170659 81 94 4.0 11.0 0.00 0.01 0.00 29 1020.6
20260903170158 81 66 3.0 11.0 0.00 0.01 0.00 29 1020.6
20260903165658 80 188 4.0 11.0 0.00 0.01 0.00 30 1020.6
20260903165158 80 79 4.0 11.0 0.00 0.01 0.00 28 1020.6
20260903164659 80 106 4.0 8.0 0.00 0.01 0.00 29 1020.6
20260903164428 80 121 4.0 8.0 0.00 0.01 0.00 30 1020.6
20260903163658 80 108 3.0 9.0 0.00 0.01 0.00 30 1020.6
20260903163158 79 96 4.0 9.0 0.00 0.01 0.00 31 1020.6
20260903162657 79 97 3.0 8.0 0.00 0.01 0.00 31 1020.6
20260903162158 79 121 2.0 8.0 0.00 0.01 0.00 31 1020.6
20260903161657 79 97 4.0 7.0 0.00 0.01 0.00 31 1020.6
20260903161155 78 87 4.0 8.0 0.00 0.01 0.00 30 1020.6
20260903160927 78 74 3.0 8.0 0.00 0.01 0.00 32 1020.6
20260903160428 78 96 4.0 9.0 0.00 0.01 0.00 34 1020.6
20260903155656 78 96 4.0 9.0 0.00 0.01 0.00 32 1020.6
20260903155155 78 73 2.0 8.0 0.00 0.01 0.00 31 1020.6
20260903154653 79 121 3.0 9.0 0.00 0.01 0.00 33 1020.6
20260903154151 78 85 5.0 10.0 0.00 0.01 0.00 33 1020.6
20260903153648 78 82 5.0 9.0 0.00 0.01 0.00 32 1020.6
20260903153148 78 90 4.0 9.0 0.00 0.01 0.00 32 1020.6
20260903152650 78 84 4.0 9.0 0.00 0.01 0.00 33 1020.6
20260903152148 78 98 3.0 7.0 0.00 0.01 0.00 33 1020.6
20260903151647 78 75 2.0 6.0 0.00 0.01 0.00 34 1020.6
20260903151145 78 102 1.0 5.0 0.00 0.01 0.00 34 1020.6
20260903150645 77 96 1.0 3.0 0.00 0.01 0.00 34 1020.6
20260903150145 77 86 0.0 2.0 0.00 0.01 0.00 33 1020.6
20260903145915 77 86 0.0 3.0 0.00 0.01 0.00 34 1020.6
20260903145146 77 121 1.0 5.0 0.00 0.01 0.00 34 1020.6
20260903144646 76 95 2.0 5.0 0.00 0.01 0.00 37 1020.6
20260903144145 76 76 2.0 4.0 0.00 0.01 0.00 35 1020.6
20260903143646 76 90 1.0 3.0 0.00 0.01 0.00 36 1020.6
20260903143146 76 94 0.0 2.0 0.00 0.01 0.00 36 1020.6
20260903142645 76 77 0.0 2.0 0.00 0.01 0.00 36 1020.6
20260903142145 75 104 0.0 2.0 0.00 0.01 0.00 36 1020.6
20260903141917 75 89 0.0 2.0 0.00 0.01 0.00 36 1020.6
20260903141144 74 77 0.0 0.0 0.00 0.01 0.00 37 1020.6
20260903140645 73 77 0.0 0.0 0.00 0.01 0.00 37 1020.6
20260903140143 72 77 0.0 4.0 0.00 0.01 0.00 39 1020.6
20260903135645 71 91 1.0 6.0 0.00 0.01 0.00 40 1020.6
20260903135144 70 82 1.0 6.0 0.00 0.01 0.00 42 1020.6
20260903134916 70 330 1.0 5.0 0.00 0.01 0.00 41 1020.6
20260903134144 70 281 1.0 5.0 0.00 0.01 0.00 40 1020.6
20260903133646 69 276 1.0 4.0 0.00 0.01 0.00 40 1020.6
20260903133145 69 272 0.0 3.0 0.00 0.01 0.00 39 1020.6
20260903132644 69 257 0.0 0.0 0.00 0.01 0.00 39 1020.6
20260903132143 70 257 0.0 0.0 0.00 0.01 0.00 39 1020.6
20260903131916 70 107 0.0 0.0 0.00 0.01 0.00 38 1020.6
20260903131413 69 107 0.0 0.0 0.00 0.01 0.00 40 1020.6
20260903130911 68 107 0.0 0.0 0.00 0.01 0.00 41 1020.6
20260903130141 66 107 0.0 0.0 0.00 0.01 0.00 41 1020.6
20260903125641 67 107 0.0 0.0 0.00 0.01 0.00 41 1020.6
20260903125148 65 255 0.0 0.0 0.00 0.01 0.00 44 1020.6
20260903125142 66 107 0.0 0.0 0.00 0.01 0.00 43 1020.6
20260903124142 65 255 0.0 0.0 0.00 0.01 0.00 44 1020.6
20260903123641 65 255 0.0 0.0 0.00 0.01 0.00 43 1020.6
20260903123141 65 278 0.0 0.0 0.00 0.01 0.00 43 1020.6
20260903122642 65 278 0.0 2.0 0.00 0.01 0.00 43 1020.6
20260903122140 65 278 0.0 2.0 0.00 0.01 0.00 44 1020.6
20260903121640 65 282 0.0 0.0 0.00 0.01 0.00 44 1020.6
20260903121412 65 255 0.0 2.0 0.00 0.01 0.00 44 1020.6
20260903120914 65 278 0.0 2.0 0.00 0.01 0.00 44 1020.6
20260903120140 65 264 0.0 0.0 0.00 0.01 0.00 44 1020.6
20260903115644 65 264 0.0 1.0 0.00 0.01 0.00 44 1020.6
20260903115639 65 264 0.0 0.0 0.00 0.01 0.00 44 1020.6
20260903114639 65 264 0.0 1.0 0.00 0.01 0.00 43 1020.6
20260903114140 65 275 0.0 1.0 0.00 0.01 0.00 43 1020.6
20260903113637 65 276 0.0 0.0 0.00 0.01 0.00 44 1020.6
20260903113136 65 260 0.0 0.0 0.00 0.01 0.00 44 1020.6
20260903112639 65 260 0.0 0.0 0.00 0.01 0.00 44 1020.6
20260903112137 65 260 0.0 0.0 0.00 0.01 0.00 43 1020.6
20260903111638 64 260 0.0 0.0 0.00 0.01 0.00 44 1020.6
20260903111407 64 260 0.0 0.0 0.00 0.01 0.00 45 1020.6
20260903110637 65 260 0.0 1.0 0.00 0.01 0.00 44 1020.6
20260903110137 65 256 0.0 1.0 0.00 0.01 0.00 44 1020.6
20260903105637 64 256 0.0 0.0 0.00 0.01 0.00 44 1020.6
20260903105138 65 263 0.0 0.0 0.00 0.01 0.00 44 1020.6
20260903104634 65 262 0.0 0.0 0.00 0.01 0.00 44 1020.6
20260903104136 65 274 0.0 2.0 0.00 0.01 0.00 44 1020.6
20260903103636 65 281 1.0 3.0 0.00 0.01 0.00 43 1020.6
20260903103138 65 288 1.0 3.0 0.00 0.01 0.00 44 1020.6
20260903102636 66 297 0.0 3.0 0.00 0.01 0.00 44 1020.6
20260903102136 66 67 1.0 4.0 0.00 0.01 0.00 44 1020.6
20260903101636 66 297 1.0 4.0 0.00 0.01 0.00 44 1020.6
20260903101136 65 345 2.0 7.0 0.00 0.01 0.00 44 1020.6
20260903100633 65 289 2.0 7.0 0.00 0.01 0.00 44 1020.6
20260903100136 65 280 1.0 3.0 0.00 0.01 0.00 44 1020.6
20260903095631 64 288 2.0 4.0 0.00 0.01 0.00 45 1020.6
20260903095132 64 287 2.0 4.0 0.00 0.01 0.00 46 1020.6
20260903094902 64 291 1.0 3.0 0.00 0.01 0.00 46 1020.6
20260903094402 64 286 1.0 3.0 0.00 0.01 0.00 45 1020.6
20260903093632 65 288 1.0 3.0 0.00 0.01 0.00 45 1020.6
20260903093132 65 281 1.0 4.0 0.00 0.01 0.00 44 1020.6
20260903092631 65 280 2.0 4.0 0.00 0.01 0.00 44 1020.6
20260903092131 64 291 2.0 4.0 0.00 0.01 0.00 45 1020.6
20260903091632 64 288 2.0 5.0 0.00 0.01 0.00 45 1020.6
20260903091403 65 297 1.0 5.0 0.00 0.01 0.00 44 1020.6
20260903090632 67 281 0.0 0.0 0.00 0.01 0.00 44 1020.6
20260903090402 67 281 0.0 0.0 0.00 0.01 0.00 43 1020.6
20260903085630 67 281 0.0 1.0 0.00 0.01 0.00 44 1020.6
20260903085131 67 281 0.0 3.0 0.00 0.01 0.00 44 1020.6
20260903084632 67 294 0.0 3.0 0.00 0.01 0.00 43 1020.6
20260903084131 66 284 0.0 0.0 0.00 0.01 0.00 45 1020.6
20260903083632 66 284 0.0 0.0 0.00 0.01 0.00 48 1020.6
20260903083132 65 284 0.0 0.0 0.00 0.01 0.00 50 1020.6
20260903082630 65 284 0.0 0.0 0.00 0.01 0.00 51 1020.6
20260903082130 64 284 0.0 0.0 0.00 0.01 0.00 53 1020.6
20260903081628 65 284 1.0 2.0 0.00 0.01 0.00 54 1020.6
20260903081400 65 284 1.0 3.0 0.00 0.01 0.00 55 1020.6
20260903080900 64 273 1.0 3.0 0.00 0.01 0.00 56 1020.6
20260903080125 64 270 0.0 0.0 0.00 0.01 0.00 55 1020.6
20260903075626 64 271 0.0 0.0 0.00 0.01 0.00 57 1020.6
20260903075126 64 271 0.0 0.0 0.00 0.01 0.00 59 1020.6
20260903074625 64 274 0.0 0.0 0.00 0.01 0.00 58 1020.6
20260903074125 64 274 0.0 0.0 0.00 0.01 0.00 58 1020.6
20260903073624 64 274 0.0 0.0 0.00 0.01 0.00 57 1020.6
20260903073125 64 274 0.0 0.0 0.00 0.01 0.00 57 1020.6
20260903072621 65 274 0.0 0.0 0.00 0.01 0.00 56 1020.6
20260903072349 65 274 0.0 0.0 0.00 0.01 0.00 56 1020.6
20260903071621 66 274 0.0 0.0 0.00 0.01 0.00 55 1020.6
20260903071120 66 274 0.0 1.0 0.00 0.01 0.00 54 1020.6
20260903070619 67 276 0.0 1.0 0.00 0.01 0.00 54 1020.6
20260903070120 67 275 0.0 0.0 0.00 0.01 0.00 54 1020.6
20260903065619 67 278 0.0 0.0 0.00 0.01 0.00 54 1020.6
20260903065119 67 278 0.0 0.0 0.00 0.01 0.00 54 1020.6
20260903064625 67 278 1.0 2.0 0.00 0.01 0.00 54 1020.6
20260903064620 67 278 0.0 2.0 0.00 0.01 0.00 54 1020.6
20260903063619 66 283 0.0 2.0 0.00 0.01 0.00 56 1020.6
20260903063119 66 277 0.0 0.0 0.00 0.01 0.00 59 1020.6
20260903062619 66 256 0.0 0.0 0.00 0.01 0.00 60 1020.6
20260903062120 66 93 0.0 0.0 0.00 0.01 0.00 59 1020.6
20260903061618 66 93 0.0 0.0 0.00 0.01 0.00 59 1020.6
20260903061349 66 93 0.0 0.0 0.00 0.01 0.00 60 1020.6
20260903060615 65 93 0.0 0.0 0.00 0.01 0.00 60 1020.6
20260903060114 66 93 0.0 0.0 0.00 0.01 0.00 60 1020.6
20260903055615 65 93 0.0 0.0 0.00 0.01 0.01 60 1020.6
20260903055111 65 93 0.0 1.0 0.00 0.01 0.01 61 1020.6
20260903054610 66 93 0.0 1.0 0.00 0.01 0.01 61 1020.6
20260903054111 66 120 0.0 0.0 0.00 0.01 0.01 59 1020.6
20260903053611 66 120 0.0 0.0 0.00 0.01 0.01 59 1020.6
20260903053342 66 233 0.0 0.0 0.00 0.01 0.01 59 1020.6
20260903052610 66 276 0.0 0.0 0.00 0.01 0.01 59 1020.6
20260903052111 66 276 0.0 0.0 0.00 0.01 0.01 57 1020.6
20260903051610 67 276 0.0 0.0 0.00 0.01 0.01 56 1020.6
20260903051109 67 276 0.0 0.0 0.00 0.01 0.01 54 1020.6
20260903050609 67 280 0.0 0.0 0.00 0.01 0.01 53 1020.6
20260903050108 67 285 0.0 0.0 0.00 0.01 0.01 53 1020.6
20260903045609 67 285 0.0 1.0 0.00 0.01 0.01 51 1020.6
20260903045108 67 285 0.0 1.0 0.00 0.01 0.01 52 1020.6
20260903044842 67 285 0.0 3.0 0.00 0.01 0.01 52 1020.6
20260903044108 66 264 0.0 3.0 0.00 0.01 0.01 56 1020.6
20260903043608 67 7 0.0 2.0 0.00 0.01 0.01 58 1020.6
20260903043111 67 283 1.0 3.0 0.00 0.01 0.01 56 1020.6
20260903043107 67 281 0.0 3.0 0.00 0.01 0.01 57 1020.6
20260903042104 67 281 0.0 3.0 0.00 0.01 0.01 56 1020.6
20260903041605 67 269 0.0 2.0 0.00 0.01 0.01 57 1020.6
20260903041104 66 253 0.0 1.0 0.00 0.01 0.01 59 1020.6
20260903040605 66 275 0.0 1.0 0.00 0.01 0.01 59 1020.6
20260903040106 65 267 0.0 0.0 0.00 0.01 0.01 60 1020.6
20260903035605 66 264 0.0 2.0 0.00 0.01 0.01 61 1020.6
20260903035335 66 266 1.0 2.0 0.00 0.01 0.01 60 1020.6
20260903034835 66 273 0.0 2.0 0.00 0.01 0.01 62 1020.6
20260903034105 65 276 0.0 0.0 0.00 0.01 0.01 62 1020.6
20260903033605 65 275 0.0 0.0 0.00 0.01 0.01 64 1020.6
20260903033103 65 358 0.0 0.0 0.01 0.01 0.01 66 1020.6
20260903032836 65 358 0.0 0.0 0.01 0.01 0.01 65 1020.6
20260903032103 65 49 0.0 3.0 0.01 0.01 0.01 63 1020.6
20260903031600 66 295 1.0 5.0 0.01 0.01 0.01 62 1020.6
20260903031102 66 16 1.0 5.0 0.01 0.01 0.01 63 1020.6
20260903030602 67 113 0.0 5.0 0.01 0.01 0.01 59 1020.6
20260903030100 66 219 1.0 7.0 0.01 0.01 0.01 63 1020.6
20260903025605 67 34 2.0 8.0 0.01 0.01 0.01 61 1020.6
20260903025600 66 10 2.0 7.0 0.01 0.01 0.01 62 1020.6
20260903024601 67 18 1.0 8.0 0.01 0.01 0.01 60 1020.6
20260903024330 69 94 2.0 11.0 0.01 0.01 0.01 54 1020.6
20260903023832 70 108 2.0 11.0 0.01 0.01 0.01 56 1020.6
20260903023059 72 108 1.0 5.0 0.00 0.00 0.00 48 1020.6
20260903022600 72 39 2.0 8.0 0.00 0.00 0.00 45 1020.6
20260903022331 72 323 4.0 8.0 0.00 0.00 0.00 45 1020.6
20260903021601 72 335 3.0 8.0 0.00 0.00 0.00 45 1020.6
20260903021058 73 6 2.0 8.0 0.00 0.00 0.00 45 1020.6
20260903020558 73 343 2.0 6.0 0.00 0.00 0.00 44 1020.6
20260903020058 73 47 2.0 6.0 0.00 0.00 0.00 44 1020.6
20260903015559 73 25 1.0 5.0 0.00 0.00 0.00 42 1020.6
20260903015057 73 321 2.0 6.0 0.00 0.00 0.00 43 1020.6
20260903014829 73 31 4.0 9.0 0.00 0.00 0.00 44 1020.6
20260903014055 74 322 4.0 9.0 0.00 0.00 0.00 42 1020.6
20260903013557 74 314 3.0 7.0 0.00 0.00 0.00 42 1020.6
20260903013059 75 323 3.0 8.0 0.00 0.00 0.00 39 1020.6
20260903012556 75 319 1.0 8.0 0.00 0.00 0.00 38 1020.6
20260903012057 75 10 0.0 5.0 0.00 0.00 0.00 38 1020.6
20260903011557 75 27 1.0 4.0 0.00 0.00 0.00 37 1020.6
20260903011327 76 311 2.0 5.0 0.00 0.00 0.00 37 1020.6
20260903010556 76 297 3.0 5.0 0.00 0.00 0.00 37 1020.6
20260903010056 76 291 2.0 5.0 0.00 0.00 0.00 37 1020.6
20260903005554 76 336 2.0 6.0 0.00 0.00 0.00 37 1020.6
20260903005055 76 331 2.0 6.0 0.00 0.00 0.00 36 1020.6
20260903004826 76 23 1.0 6.0 0.00 0.00 0.00 37 1020.6
20260903004054 76 299 1.0 4.0 0.00 0.00 0.00 37 1020.6
20260903003553 76 312 2.0 6.0 0.00 0.00 0.00 36 1020.6
20260903003324 77 293 3.0 7.0 0.00 0.00 0.00 35 1020.6
20260903002825 78 305 4.0 8.0 0.00 0.00 0.00 35 1020.6
20260903002054 78 301 5.0 8.0 0.00 0.00 0.00 35 1020.6
20260903001554 78 285 5.0 8.0 0.00 0.00 0.00 35 1020.6
20260903001323 78 288 5.0 8.0 0.00 0.00 0.00 35 1020.6
20260903000821 78 299 6.0 11.0 0.00 0.00 0.00 35 1020.6
20260903000051 78 266 7.0 12.0 0.00 0.00 0.00 34 1020.6
20260902235551 80 289 7.0 13.0 0.00 0.00 0.00 33 1020.6
20260902235051 80 309 8.0 13.0 0.00 0.00 0.00 32 1020.6
20260902234548 81 323 8.0 14.0 0.00 0.00 0.00 31 1020.6
20260902234050 81 311 9.0 14.0 0.00 0.00 0.00 31 1020.6
20260902233549 81 294 8.0 14.0 0.00 0.00 0.00 31 1020.6
20260902233049 81 313 9.0 14.0 0.00 0.00 0.00 30 1020.6
20260902232546 81 310 9.0 15.0 0.00 0.00 0.00 31 1020.6
20260902232047 82 313 10.0 15.0 0.00 0.00 0.00 30 1020.6
20260902231550 80 296 11.0 17.0 0.00 0.00 0.00 32 1020.6
20260902231545 82 302 10.0 16.0 0.00 0.00 0.00 30 1020.6
20260902230819 79 297 12.0 19.0 0.00 0.00 0.00 34 1020.6
20260902230050 79 298 14.0 19.0 0.00 0.00 0.00 35 1020.6
20260902225548 80 307 14.0 23.0 0.00 0.00 0.00 33 1020.6
20260902225043 80 295 9.0 23.0 0.00 0.00 0.00 32 1020.6
20260902224544 82 288 3.0 11.0 0.00 0.00 0.00 29 1020.6
20260902224045 82 297 1.0 6.0 0.00 0.00 0.00 28 1020.6
20260902223544 83 249 0.0 4.0 0.00 0.00 0.00 28 1020.6
20260902223314 83 274 0.0 0.0 0.00 0.00 0.00 28 1020.6
20260902222543 83 168 1.0 5.0 0.00 0.00 0.00 27 1020.6
20260902222310 83 109 1.0 5.0 0.00 0.00 0.00 27 1020.6
20260902221538 83 91 1.0 10.0 0.00 0.00 0.00 26 1020.6
20260902221039 84 211 2.0 10.0 0.00 0.00 0.00 25 1020.6
20260902220539 85 101 1.0 3.0 0.00 0.00 0.00 25 1020.6
20260902220037 86 86 2.0 7.0 0.00 0.00 0.00 25 1020.6
20260902215539 86 97 4.0 9.0 0.00 0.00 0.00 25 1020.6
20260902215038 85 108 3.0 9.0 0.00 0.00 0.00 25 1020.6
20260902214810 87 116 1.0 7.0 0.00 0.00 0.00 24 1020.6
20260902214037 87 238 3.0 13.0 0.00 0.00 0.00 25 1020.6
20260902213538 86 246 4.0 13.0 0.00 0.00 0.00 25 1020.6